This is the latest recevied weather packets stored in our database for station/object KC8QDR-1. If no packets are shown the sender has not sent any weather packets the latest 1 day(s).
| Time | Temp. | Humidity | Pressure | Rain* | Wind** | Luminosity | Snow |
|---|---|---|---|---|---|---|---|
| 1778082525 | 11.67° C | 77% | 1016.2 hPa | 0 mm | 2.24 m/s, 359° | - | - |
| 1778082071 | 11.67° C | 80% | 1016.3 hPa | 0 mm | 2.24 m/s, 286° | - | - |
| 1778081925 | 11.67° C | 80% | 1016.3 hPa | 0 mm | 2.24 m/s, 286° | - | - |
| 1778081325 | 10.56° C | 80% | 1016.1 hPa | 0 mm | 2.24 m/s, 354° | - | - |
| 1778080725 | 10.56° C | 81% | 1015.9 hPa | 0 mm | 1.34 m/s, 352° | - | - |
| 1778080125 | 10.56° C | 84% | 1015.9 hPa | 0 mm | 0.89 m/s, 354° | - | - |
| 1778079525 | 10.56° C | 87% | 1015.8 hPa | 0 mm | 2.24 m/s, 358° | - | - |
| 1778078925 | 10° C | 87% | 1015.6 hPa | 0 mm | 0.89 m/s, 321° | - | - |
| 1778078325 | 10° C | 90% | 1015.6 hPa | 0 mm | 1.34 m/s, 43° | - | - |
| 1778077725 | 10° C | 92% | 1015.6 hPa | 0 mm | 2.24 m/s, 330° | - | - |
| 1778075925 | 9.44° C | 95% | 1015.3 hPa | 0 mm | 1.79 m/s, 326° | - | - |
| 1778075325 | 10° C | 95% | 1015.2 hPa | 0 mm | 1.34 m/s, 317° | - | - |
| 1778074725 | 9.44° C | 94% | 1014.9 hPa | 0 mm | 1.34 m/s, 0° | - | - |
| 1778073525 | 9.44° C | 95% | 1014.9 hPa | 0 mm | 0 m/s | - | - |
| 1778072925 | 9.44° C | 95% | 1015 hPa | 0 mm | 0.45 m/s, 299° | - | - |
| 1778072325 | 9.44° C | 96% | 1014.6 hPa | 0 mm | 1.34 m/s, 11° | - | - |
| 1778071725 | 9.44° C | 96% | 1014.6 hPa | 0 mm | 0.89 m/s, 2° | - | - |
| 1778071125 | 8.89° C | 96% | 1014.5 hPa | 0 mm | 0 m/s | - | - |
| 1778069928 | 8.89° C | 96% | 1014.5 hPa | 0 mm | 0 m/s | - | - |
| 1778069325 | 8.89° C | 96% | 1014.8 hPa | 0 mm | 0 m/s | - | - |
| 1778068816 | 8.33° C | 96% | 1014.7 hPa | 0 mm | 0 m/s | - | - |
| 1778067525 | 8.33° C | 97% | 1014.4 hPa | 0 mm | 0 m/s | - | - |
| 1778066925 | 8.33° C | 97% | 1014.5 hPa | 0.25 mm | 0 m/s | - | - |
| 1778066325 | 8.33° C | 97% | 1014.2 hPa | 0.51 mm | 0.45 m/s, 306° | - | - |
| 1778065725 | 8.33° C | 97% | 1014.3 hPa | 0.76 mm | 1.34 m/s, 320° | - | - |
* Rain latest hour (hover to see other rain measurements)
** Current wind speed in m/s (hover to see current wind gust speed)